Date,TemperatureHighF,TemperatureAvgF,TemperatureLowF,DewpointHighF,DewpointAvgF,DewpointLowF,HumidityHigh,HumidityAvg,HumidityLow,PressureMaxIn,PressureMinIn,WindSpeedMaxMPH,WindSpeedAvgMPH,GustSpeedMaxMPH,PrecipitationSumIn
2013-2-1,53,44,40,46,39,34,95,82,65,30.42,30.31,2,0,5,0.00
2013-2-2,43,40,37,38,33,29,92,77,62,30.41,30.22,2,0,6,0.00
2013-2-3,44,42,40,42,39,35,94,90,81,30.27,30.12,5,1,12,0.00
2013-2-4,48,43,41,44,38,31,94,83,64,30.13,29.78,4,2,11,0.00
2013-2-5,49,46,43,43,42,39,94,85,78,29.78,29.66,18,11,30,0.00
2013-2-6,48,45,44,41,40,39,90,83,71,29.91,29.65,16,10,28,0.00
2013-2-7,54,45,37,45,39,35,94,80,61,30.18,29.65,18,8,34,0.00
2013-2-8,49,40,35,41,37,34,95,90,71,30.28,30.18,3,1,6,0.00
2013-2-9,43,40,38,42,39,36,95,94,92,30.34,30.24,3,1,7,0.00
2013-2-10,46,42,38,42,39,37,95,91,83,30.36,30.29,2,0,4,0.00
2013-2-11,51,43,40,45,40,39,95,93,77,30.31,30.28,3,1,8,0.00
2013-2-12,47,43,41,45,41,40,95,93,76,30.33,30.16,5,1,12,0.00
2013-2-13,54,45,42,45,41,13,94,87,65,30.44,30.20,3,1,5,0.00
2013-2-14,46,43,41,44,41,39,94,93,91,30.57,30.44,2,0,4,0.00
2013-2-15,49,44,42,46,40,34,94,87,66,30.57,30.14,2,0,4,0.00
2013-2-16,54,45,41,46,41,37,93,85,67,30.15,30.03,5,1,14,0.00
2013-2-17,51,42,37,41,37,35,93,82,65,30.19,30.07,5,1,12,0.00
2013-2-18,45,41,38,40,37,36,93,87,79,30.07,29.74,9,3,14,0.00
2013-2-19,55,44,35,43,38,34,95,81,51,29.96,29.74,3,1,11,0.00
2013-2-20,44,40,35,41,37,33,95,91,83,29.99,29.94,6,1,11,0.00
2013-2-21,50,44,41,42,39,38,90,83,68,29.96,29.87,11,5,21,0.00
2013-2-22,54,44,40,44,38,33,92,82,52,29.92,29.49,19,8,29,0.00
2013-2-23,54,44,38,40,36,32,91,73,48,30.28,29.75,4,1,20,0.00
2013-2-24,46,43,39,41,39,34,94,85,74,30.29,29.72,22,10,39,0.00
2013-2-25,54,45,40,41,37,30,92,75,46,30.21,29.63,21,6,33,0.00
2013-2-26,45,41,37,39,36,32,90,81,69,30.25,30.07,15,8,26,0.00
2013-2-27,52,41,36,40,38,34,95,87,61,30.27,30.11,10,3,15,0.00
2013-2-28,45,39,36,43,38,35,97,94,89,30.25,30.14,5,2,11,0.00